CW2969 Weather Reports


time (UTC)temp
C
wind
direction
speed
KPH
gust
KPH
rain 1hr
cm
rain 24hr
cm
rain mn
cm
humidity
%
barometer
mb
20260505051015 22 263 0.0 12.9 0.00 0.00 0.00 80 1008.2
20260505050516 22 157 12.9 20.9 0.00 0.00 0.00 80 1008.4
20260505041015 23 220 6.4 20.9 0.00 0.00 0.00 78 1008.2
20260505040515 23 194 11.3 14.5 0.00 0.00 0.00 77 1008.3
20260505040015 23 121 3.2 14.5 0.00 0.00 0.00 77 1008.3
20260505035515 23 51 3.2 14.5 0.00 0.00 0.00 77 1008.3
20260505035015 23 132 4.8 11.3 0.00 0.00 0.00 77 1008.2
20260505034515 23 132 11.3 11.3 0.00 0.00 0.00 77 1008.2
20260505033515 23 182 6.4 11.3 0.00 0.00 0.00 76 1008.2
20260505033014 23 149 0.0 6.4 0.00 0.00 0.00 76 1008.3
20260505032014 23 157 1.6 11.3 0.00 0.00 0.00 76 1008.2
20260505031515 23 269 4.8 12.9 0.00 0.00 0.00 75 1008.1
20260505031014 23 152 1.6 12.9 0.00 0.00 0.00 75 1008.2
20260505030514 23 120 8.0 11.3 0.00 0.00 0.00 75 1008.2
20260505030014 23 188 1.6 11.3 0.00 0.00 0.00 75 1008.3
20260505025515 23 244 3.2 8.0 0.00 0.00 0.00 74 1008.2
20260505025014 23 149 3.2 14.5 0.00 0.00 0.00 74 1008.2
20260505024514 24 156 3.2 14.5 0.00 0.00 0.00 74 1008.2
20260505024014 24 152 1.6 4.8 0.00 0.00 0.00 73 1008.2
20260505023514 24 142 1.6 8.0 0.00 0.00 0.00 73 1008.0
20260505023014 24 133 3.2 11.3 0.00 0.00 0.00 73 1008.0
20260505022514 24 269 3.2 11.3 0.00 0.00 0.00 73 1008.0
20260505022014 24 134 3.2 8.0 0.00 0.00 0.00 73 1008.0
20260505020514 25 213 3.2 12.9 0.00 0.00 0.00 71 1007.9
20260505020014 25 181 4.8 12.9 0.00 0.00 0.00 71 1007.8
20260505015514 25 159 3.2 8.0 0.00 0.00 0.00 71 1007.9
20260505015014 25 235 1.6 11.3 0.00 0.00 0.00 70 1007.7
20260505014514 25 134 6.4 11.3 0.00 0.00 0.00 70 1007.7
20260505013514 25 134 1.6 9.7 0.00 0.00 0.00 69 1007.8
20260505013013 25 135 8.0 9.7 0.00 0.00 0.00 68 1007.7
20260505012513 25 120 6.4 14.5 0.00 0.00 0.00 68 1007.7
20260505012013 25 146 4.8 14.5 0.00 0.00 0.00 68 1007.7
20260505011014 26 140 8.0 17.7 0.00 0.00 0.00 66 1007.5
20260505010014 26 234 1.6 9.7 0.00 0.00 0.00 65 1007.4
20260505005513 26 169 9.7 9.7 0.00 0.00 0.00 65 1007.4
20260505005013 26 175 3.2 9.7 0.00 0.00 0.00 64 1007.4
20260505004513 26 215 8.0 11.3 0.00 0.00 0.00 64 1007.4
20260505003513 27 121 6.4 11.3 0.00 0.00 0.00 62 1007.3
20260505003013 27 214 3.2 11.3 0.00 0.00 0.00 62 1007.3
20260505002513 27 291 11.3 17.7 0.00 0.00 0.00 62 1007.3
20260505002013 27 165 3.2 17.7 0.00 0.00 0.00 61 1007.2
20260505000513 27 311 1.6 17.7 0.00 0.00 0.00 60 1007.6
20260504235512 27 272 9.7 16.1 0.00 0.00 0.00 61 1007.5
20260504235012 27 125 12.9 16.1 0.00 0.00 0.00 61 1007.5
20260504234512 27 107 3.2 17.7 0.00 0.00 0.00 60 1007.6
20260504234013 27 145 4.8 17.7 0.00 0.00 0.00 60 1007.8
20260504232512 27 150 4.8 11.3 0.00 0.00 0.00 60 1007.8
20260504232012 27 250 3.2 11.3 0.00 0.00 0.00 60 1007.8
20260504231512 27 198 8.0 16.1 0.00 0.00 0.00 59 1007.8
20260504230512 27 70 3.2 17.7 0.00 0.00 0.00 59 1008.0
20260504230012 27 135 8.0 17.7 0.00 0.00 0.00 59 1008.1
20260504225512 28 297 8.0 17.7 0.00 0.00 0.00 59 1008.1
20260504225012 28 313 8.0 14.5 0.00 0.00 0.00 59 1008.1
20260504224512 28 215 8.0 11.3 0.00 0.00 0.00 59 1008.3
20260504224012 28 146 6.4 11.3 0.00 0.00 0.00 59 1008.2
20260504223512 28 113 3.2 6.4 0.00 0.00 0.00 59 1008.3
20260504223012 28 267 6.4 16.1 0.00 0.00 0.00 60 1008.4
20260504222512 28 233 11.3 16.1 0.00 0.00 0.00 59 1008.4
20260504221511 28 250 4.8 12.9 0.00 0.00 0.00 60 1008.5
20260504221012 28 213 4.8 14.5 0.00 0.00 0.00 60 1008.5
20260504220511 28 143 6.4 19.3 0.00 0.00 0.00 59 1008.5
20260504220012 28 115 4.8 19.3 0.00 0.00 0.00 60 1008.5
20260504215511 28 148 4.8 14.5 0.00 0.00 0.00 60 1008.7
20260504215011 28 288 6.4 9.7 0.00 0.00 0.00 61 1008.6
20260504214511 28 259 6.4 11.3 0.00 0.00 0.00 61 1008.7
20260504214011 27 209 8.0 11.3 0.00 0.00 0.00 60 1008.5
20260504213011 28 186 4.8 9.7 0.00 0.00 0.00 60 1008.9
20260504212511 28 265 3.2 12.9 0.00 0.00 0.00 60 1009.0
20260504212011 28 136 1.6 12.9 0.00 0.00 0.00 60 1009.0
20260504211511 28 176 3.2 12.9 0.00 0.00 0.00 60 1009.1
20260504211011 28 111 9.7 16.1 0.00 0.00 0.00 60 1009.2
20260504210011 28 115 11.3 14.5 0.00 0.00 0.00 59 1009.2
20260504205511 28 166 14.5 17.7 0.00 0.00 0.00 60 1009.4
20260504205010 28 126 17.7 17.7 0.00 0.00 0.00 60 1009.4
20260504204511 28 125 12.9 17.7 0.00 0.00 0.00 60 1009.4
20260504204010 28 131 3.2 17.7 0.00 0.00 0.00 59 1009.6
20260504203510 28 198 1.6 11.3 0.00 0.00 0.00 60 1009.7
20260504203010 28 108 4.8 11.3 0.00 0.00 0.00 61 1009.9
20260504202510 28 194 3.2 9.7 0.00 0.00 0.00 61 1010.0
20260504202010 28 291 6.4 12.9 0.00 0.00 0.00 61 1010.1
20260504201510 28 232 6.4 19.3 0.00 0.00 0.00 60 1010.1
20260504201010 28 231 12.9 19.3 0.00 0.00 0.00 61 1010.3
20260504200510 28 131 6.4 16.1 0.00 0.00 0.00 60 1010.3
20260504200010 28 238 3.2 12.9 0.00 0.00 0.00 61 1010.3
20260504195010 27 188 4.8 17.7 0.00 0.00 0.00 62 1010.6
20260504194509 27 266 3.2 14.5 0.00 0.00 0.00 61 1010.7
20260504194010 27 141 8.0 14.5 0.00 0.00 0.00 61 1010.8
20260504193509 27 123 4.8 16.1 0.00 0.00 0.00 62 1010.8
20260504193009 27 221 4.8 22.5 0.00 0.00 0.00 62 1010.8
20260504192510 27 227 6.4 22.5 0.00 0.00 0.00 62 1010.9
20260504191509 27 210 4.8 27.4 0.00 0.00 0.00 62 1011.2
20260504191009 27 216 3.2 16.1 0.00 0.00 0.00 63 1011.2
20260504190510 27 245 11.3 16.1 0.00 0.00 0.00 63 1011.1
20260504190009 27 211 3.2 12.9 0.00 0.00 0.00 63 1011.2
20260504185511 26 34 1.6 17.7 0.00 0.00 0.00 64 1011.2
20260504185009 26 264 3.2 17.7 0.00 0.00 0.00 64 1011.2
20260504184509 26 275 11.3 22.5 0.00 0.00 0.00 64 1011.4
20260504184009 26 269 12.9 22.5 0.00 0.00 0.00 64 1011.5
20260504183509 26 167 6.4 17.7 0.00 0.00 0.00 65 1011.6
20260504183009 26 290 8.0 22.5 0.00 0.00 0.00 64 1011.8
20260504182509 26 205 8.0 22.5 0.00 0.00 0.00 66 1011.8
20260504182009 26 163 3.2 14.5 0.00 0.00 0.00 66 1011.9
20260504181509 26 260 6.4 16.1 0.00 0.00 0.00 66 1012.0
20260504181008 25 198 1.6 16.1 0.00 0.00 0.00 66 1011.9
20260504180509 25 229 4.8 16.1 0.00 0.00 0.00 66 1011.9
20260504180008 25 212 4.8 16.1 0.00 0.00 0.00 67 1012.0
20260504175509 25 46 4.8 14.5 0.00 0.00 0.00 68 1012.2
20260504174510 25 300 3.2 11.3 0.00 0.00 0.00 68 1012.3
20260504174008 24 198 1.6 11.3 0.00 0.00 0.00 70 1012.7
20260504173508 24 271 4.8 11.3 0.00 0.00 0.00 70 1012.8
20260504172512 24 138 6.4 9.7 0.00 0.00 0.00 70 1012.9
20260504172008 24 232 4.8 14.5 0.00 0.00 0.00 70 1012.9
20260504171508 24 269 4.8 29.0 0.00 0.00 0.00 70 1013.0
20260504171008 24 176 4.8 29.0 0.00 0.00 0.00 71 1013.0
20260504170508 23 182 9.7 22.5 0.00 0.00 0.00 72 1013.1
20260504151007 21 190 3.2 12.9 0.00 0.00 0.00 75 1013.8
20260504150507 21 134 11.3 12.9 0.00 0.00 0.00 75 1014.0
20260504140506 20 129 4.8 9.7 0.00 0.00 0.00 76 1014.1
20260504081533 17 156 4.8 4.8 0.00 0.00 0.00 74 1014.5
20260504081032 17 236 1.6 4.8 0.00 0.00 0.00 74 1014.6
20260504080533 17 120 0.0 6.4 0.00 0.00 0.00 73 1014.6